Showing default

IRIDIUM 126, 42809

Orbit data source: Space-Track

IRIDIUM 126, 42809 is a payload satellite owned by Iridium (US) in LEO that was launched on Sun, 25 Jun 2017 UTC via an FALCON 9 launch vehicle from the Air Force Western Test Range (AFWTR). Payload-class satellites include a variety of spacecraft equipped with specific instruments for various scientific and technological missions. These include communications satellites like Starlink; space stations such as the ISS; scientific satellites like the Hubble; Earth observation satellites from companies like Planet Labs, Umbra, and HawkEye 360; GPS; miniature CubeSats for education and research; and military/defense satellites.

Loading next visibility...
Identifier
42809, 2017-039G
Orbit
LEO
Country
Flag of USUS
Related business
Manufacturer
OATK SSG Gilbert
Mission
Operational Commercial Communications
Bus & Motor
ELITEBUS, Unknown motor
Mass
860 kg wet, 700 kg dry
Launch date (UTC)
2017-06-25 (8 years ago)
Launch vehicle
FALCON 9
Launch site
Air Force Western Test Range (AFWTR)
Object type
Payload
Rocket body
Debris
Shape & HBR
Trap Box + 2 Pan, 4.8 m
Radar Cross Section
10.154 m², Large (>1 m²)

Expand to show TLE details & history
Last TLE update: 12 hours ago

TLE from 12 hours ago
0 IRIDIUM 126
1 42809U 17039G   25346.79693129  .00000339  00000-0  11410-3 0  9994
2 42809  86.3969  71.5622 0001901  98.9259 261.2152 14.34218530443238
Epoch: 2025-12-12T19:07Z
TLE epoch observation values (Epoch: 2025-12-12T19:07:34.863Z)
Latitude
-0.00003°
Longitude
62.93353°
Altitude
780.924 km
Speed
7.463 km/s
True Right ascension
04h 46m 14s
True Declination
0° 00' 00"
Sunlit
Object was in full shadow at epoch
Visualization orbit readout
Latitude
Unknown
Longitude
Unknown
Altitude
Unknown
Speed
Unknown
Apparent Right ascension
Unknown
Apparent Declination
Unknown
Sunlit
N/A
Visualization observer readout
Local Sidereal Time
05:21:38
Azimuth
Unknown
Elevation
Unknown
Doppler factor
Unknown
Orbital elements
Apogee altitude
775.989 km
Perigee altitude
773.269 km
Semi-major axis
7,152.766 km
Eccentricity
0.00019
Inclination
86.3969°
RAAN
71.5622°
Arg. of periapsis
98.9259°
True anomaly
261.19367°
Mean anomaly
261.2152°
Eccentric anomaly
261.20444°
Mean motion
3.58783 °/min
Orbital period
100.34 mins
BSTAR
0.0001141
Loading maneuver chart data...
Computing Atmospheric mass density...
Loading historical data...
Loading historical data...
Loading historical data...
Loading historical data...
Loading historical data...
Loading historical data...
Loading historical data...

Documentation

Showing up to 5 results
|